sat.trackr.live / text

‹ back to catalog

STARLINK-36927

NORAD 67941 · 2026-037K

PAYLOAD ACTIVE UNKNOWN

§ Identity

Operator
Country
US
Launch date
2026-02-24
Launch site
AFETR
Launch vehicle
Mass (kg)
RCS (m²)

Purposes: comms

External: N2YO · Heavens-Above · Gunter

§ Orbital elements

Epoch: 2026-05-25T04:41:41.110080Z

Period
94.27 min
Inclination
42.9996°
Eccentricity
0.0000838
Mean motion
15.27596609 rev/d
Perigee alt
482.4 km
Apogee alt
483.6 km
Semi-major
6,861.1 km
B*
6.0057e-4
RAAN
118.4524°
Arg perigee
270.5262°
Mean anomaly
89.5493°
Rev number
1,504

§ Raw data

STARLINK-369271 67941U 26037K   26145.19561470  .00016309  00000+0  60057-3 0  99952 67941  42.9996 118.4524 0000838 270.5262  89.5493 15.27596609 15044

JSON: /api/v1/satellites/67941 · /tle

For live sub-satellite position, see the globe view (requires WebGL).

§ Visibility from observer

Set your observer location to see the next 7 days of passes ≥ 10°. The values pass through the URL so the page stays shareable.

No JS? Fill the form by hand. The geolocation button needs JavaScript.